Weather History for Gainesville, FL

Change the Weather History Date:

Thursday, June 27, 2013

  Actual Average Record
Temperature  
Mean Temperature 80 °F 81 °F  
Max Temperature 90 °F 91 °F 104 °F (1952)
Min Temperature 69 °F 71 °F 63 °F (1936)
Degree Days  
Heating Degree Days 0 0  
Month to date heating degree days 0 0  
Since 1 June heating degree days 0 0  
Since 1 July heating degree days 1040 1218  
Cooling Degree Days 15 16  
Month to date cooling degree days 440 391  
Year to date cooling degree days 972 901  
Since 1 June cooling degree days 440 391  
Growing Degree Days 29 (Base 50)    
Moisture  
Dew Point 72 °F    
Average Humidity 80    
Maximum Humidity 97    
Minimum Humidity 63    
Precipitation  
Precipitation 0.06 in 0.27 in 5.56 in (1892)
Month to date precipitation 5.80 6.30  
Year to date precipitation 16.80 22.29  
Snow  
Snow 0.00 in 0.00 in 0.00 in ()
Month to date snowfall 0.0 0.0  
Since 1 June snowfall 0.0 0.0  
Since 1 July snowfall 0.0 0.0  
Snow Depth 0.00 in    
Sea Level Pressure  
Sea Level Pressure 30.00 in    
Wind  
Wind Speed 4 mph (SW)    
Max Wind Speed 15 mph    
Max Gust Speed 20 mph    
Visibility 10 miles    
Events Rain    
T = Trace of Precipitation, MM = Missing Value Source: NWS Daily Summary

Daily Weather History Graph

Daily Weather History Graph

Search for Another Location

Airport:

Trip Planner

Search our weather history database for the weather conditions in past years. The results will help you decide how hot, cold, wet, or windy it might be!

Date:

Astronomy

Jun. 27, 2013 Rise Set
Actual Time 6:31 AM EDT 8:33 PM EDT
Civil Twilight 6:03 AM EDT 9:00 PM EDT
Nautical Twilight 5:30 AM EDT 9:33 PM EDT
Astronomical Twilight 4:55 AM EDT 10:09 PM EDT
Moon 11:55 PM EDT (6/27) 11:08 AM EDT (6/27)
Length of Visible Light 14h 57m
Length of Day
14h 02m
Waning Gibbous, 76% of the Moon is Illuminated
Jun 27
Waning Gibbous
Jun 30
Last Quarter
Jul 8
New
Jul 15
First Quarter
Jul 22
Full

Hourly Weather History & Observations

Time (EDT) Temp. Heat Index Dew Point Humidity Pressure Visibility Wind Dir Wind Speed Gust Speed Precip Events Conditions
12:53 AM 71.1 °F - 69.1 °F 93% 30.05 in 10.0 mi Calm Calm - N/A   Clear
1:53 AM 71.1 °F - 69.1 °F 93% 30.03 in 10.0 mi Calm Calm - N/A   Clear
2:53 AM 71.1 °F - 69.1 °F 93% 30.02 in 10.0 mi Calm Calm - N/A   Clear
3:53 AM 70.0 °F - 68.0 °F 93% 30.02 in 10.0 mi Calm Calm - 0.01 in   Clear
4:53 AM 70.0 °F - 68.0 °F 93% 30.01 in 10.0 mi Calm Calm - N/A   Clear
5:53 AM 70.0 °F - 68.0 °F 93% 30.02 in 10.0 mi Calm Calm - N/A   Clear
6:53 AM 69.1 °F - 66.9 °F 93% 30.03 in 10.0 mi Calm Calm - N/A   Clear
7:53 AM 73.9 °F - 70.0 °F 87% 30.03 in 10.0 mi Calm Calm - N/A   Clear
8:53 AM 79.0 °F - 72.0 °F 79% 30.04 in 10.0 mi West 3.5 mph - N/A   Clear
9:53 AM 82.9 °F 90.2 °F 75.0 °F 77% 30.04 in 10.0 mi Variable 4.6 mph - N/A   Clear
10:41 AM 84.2 °F 92.3 °F 75.2 °F 74% 30.04 in 10.0 mi NNW 6.9 mph - N/A   Mostly Cloudy
10:53 AM 86.0 °F 95.1 °F 75.0 °F 70% 30.03 in 10.0 mi NW 8.1 mph - N/A   Mostly Cloudy
11:53 AM 82.0 °F 87.9 °F 73.9 °F 76% 30.02 in 10.0 mi Calm Calm - 0.04 in Rain Light Rain
12:53 PM 89.1 °F 98.0 °F 73.9 °F 61% 30.01 in 10.0 mi West 8.1 mph - 0.00 in   Scattered Clouds
1:53 PM 82.9 °F 88.8 °F 73.0 °F 72% 30.00 in 4.0 mi Variable 5.8 mph - 0.01 in Rain Heavy Rain
2:53 PM 82.9 °F 90.2 °F 75.0 °F 77% 29.99 in 10.0 mi SSW 6.9 mph - 0.01 in   Partly Cloudy
3:53 PM 82.9 °F 88.8 °F 73.0 °F 72% 29.97 in 10.0 mi SSW 6.9 mph - N/A   Clear
4:53 PM 84.9 °F 92.1 °F 73.9 °F 69% 29.95 in 10.0 mi SSW 5.8 mph - N/A   Clear
5:53 PM 87.1 °F 94.5 °F 73.0 °F 63% 29.94 in 10.0 mi SSW 6.9 mph - N/A   Clear
6:53 PM 86.0 °F 95.1 °F 75.0 °F 70% 29.93 in 10.0 mi SW 5.8 mph - N/A   Clear
7:53 PM 84.0 °F 91.9 °F 75.0 °F 74% 29.93 in 10.0 mi SSW 8.1 mph - N/A   Clear
8:53 PM 82.0 °F 88.6 °F 75.0 °F 79% 29.93 in 10.0 mi SSW 6.9 mph - N/A   Clear
9:53 PM 81.0 °F 86.7 °F 75.0 °F 82% 29.94 in 10.0 mi WSW 5.8 mph - N/A   Clear
10:53 PM 80.1 °F 85.1 °F 75.0 °F 85% 29.95 in 10.0 mi SW 4.6 mph - N/A   Clear
11:53 PM 79.0 °F - 73.9 °F 84% 29.96 in 10.0 mi Calm Calm - N/A   Clear